This is the latest recevied weather packets stored in our database for station/object KB4NWJ. If no packets are shown the sender has not sent any weather packets the latest 10 day(s).
| Time | Temp. | Humidity | Pressure | Rain* | Wind** | Luminosity | Snow |
|---|---|---|---|---|---|---|---|
| 1777859532 | 12.78° C | 69% | 1019.1 hPa | 0 mm | - | 0 W/m² | - |
| 1777859228 | 12.78° C | 68% | 1019.3 hPa | 0 mm | - | 0 W/m² | - |
| 1777858925 | 12.78° C | 68% | 1019.1 hPa | 0 mm | - | 0 W/m² | - |
| 1777858623 | 13.33° C | 67% | 1019 hPa | 0 mm | - | 0 W/m² | - |
| 1777858320 | 13.33° C | 67% | 1018.9 hPa | 0 mm | - | 0 W/m² | - |
| 1777858016 | 13.33° C | 66% | 1018.8 hPa | 0 mm | - | 0 W/m² | - |
| 1777857715 | 13.89° C | 64% | 1019.1 hPa | 0 mm | - | 0 W/m² | - |
| 1777857411 | 13.89° C | 65% | 1018.6 hPa | 0 mm | - | 0 W/m² | - |
| 1777857108 | 13.89° C | 62% | 1018.7 hPa | 0 mm | - | 0 W/m² | - |
| 1777856804 | 13.89° C | 62% | 1018.8 hPa | 0 mm | - | 0 W/m² | - |
| 1777856499 | 14.44° C | 61% | 1018.6 hPa | 0 mm | - | 0 W/m² | - |
| 1777856197 | 14.44° C | 60% | 1018.8 hPa | 0 mm | - | 0 W/m² | - |
| 1777855893 | 15° C | 59% | 1018.6 hPa | 0 mm | - | 0 W/m² | - |
| 1777855592 | 15° C | 57% | 1018.7 hPa | 0 mm | - | 0 W/m² | - |
| 1777855289 | 15° C | 56% | 1018.6 hPa | 0 mm | - | 0 W/m² | - |
| 1777854985 | 15.56° C | 54% | 1018.7 hPa | 0 mm | - | 0 W/m² | - |
| 1777854681 | 15.56° C | 54% | 1018.4 hPa | 0 mm | - | 0 W/m² | - |
| 1777854378 | 16.11° C | 52% | 1018.5 hPa | 0 mm | - | 1 W/m² | - |
| 1777854076 | 16.11° C | 51% | 1018.7 hPa | 0 mm | - | 3 W/m² | - |
| 1777853774 | 16.67° C | 51% | 1018.5 hPa | 0 mm | - | 5 W/m² | - |
| 1777853469 | 17.22° C | 51% | 1018.4 hPa | 0 mm | - | 7 W/m² | - |
| 1777853167 | 17.22° C | 50% | 1018.5 hPa | 0 mm | - | 10 W/m² | - |
| 1777852864 | 17.22° C | 48% | 1018.4 hPa | 0 mm | - | 12 W/m² | - |
| 1777852562 | 17.78° C | 47% | 1018.7 hPa | 0 mm | - | 14 W/m² | - |
| 1777852259 | 17.78° C | 47% | 1018.4 hPa | 0 mm | - | 17 W/m² | - |
* Rain latest hour (hover to see other rain measurements)
** Current wind speed in m/s (hover to see current wind gust speed)